SITRO-AIS 9 (SHCHUKIN)

Last updated on Thu Nov 21 2024 00:03:40 GMT+0000 (Coordinated Universal Time)

1 57201U 23091AM 24325.54160534 .00017651 00000+0 90652-3 0 9998 2 57201 97.5915 18.2796 0009785 296.3100 63.7127 15.16521411 77205
UTC large
Height (km)
Speed (km/s)
/
Latitude / Longitude
Inclination (degrees)
Orbital Period (minutes)
Azimuth
Elevation
Range (km)
Doppler Factor

Next 0 passes for location: London (51.5072 / 0.1276)

Sorry there are no passes over London.